QIANFAN-22

Satellite information

Favourite Embed

Satellite Type and Status

PAYLOADIN ORBIT

Key statistics

Satellite QIANFAN-22 at a glance.

Uptime

429

Days in orbit

Revolutions

≈ 13.9

Per day

Orbit

LEO

Low Earth Orbit

Inclination

89.0

Latest

Satellite identification and parameters

Extended collection of information and parameters for QIANFAN-22.

Object identification

Identified? True

Debris? False

Object name: QIANFAN-22

International designator: 2024-185D

Object number (NORAD): 61555

Object ID (CCSDS): 61555

Country: PEOPLES REPUBLIC OF CHINA (PRC)

Current information (Y/N): Y

RCS size: LARGE

Orbital parameters

Period: 103.873 minutes

Inclination: 88.9805 deg

SMA: 7319.747 km

Apoapsis: 945.913 km

Periapsis: 937.31 km

RAAN: 78.7834 deg

Eccentricy: 0.00058765

Argument of periapsis: 1.3841 deg

Mean anomaly: 358.7345 deg

Mean motion: 13.86304596 rev/day

Mean motion (dot): 0.00000175 rev/day2

B* drag term: 0.00014033261 1/REarth

Two-line elements (TLE)

Creation date: Dec. 17, 2025, 2:25 a.m.

Reference frame: TEME

Reference center: EARTH

Epoch: Dec. 16, 2025, 11:25 p.m. UTC

TLE line 0: 0 QIANFAN-22

TLE line 1: 1 61555U 24185D 25350.97612763 .00000175 00000-0 14033-3 0 9995

TLE line 2: 2 61555 88.9805 78.7834 0005877 1.3841 358.7345 13.86304596 69525

Live tracking on map

Real-time ground track for satellite QIANFAN-22.

In-orbit conjunctions

There are no conjunctions computed for QIANFAN-22, at the moment. Check back to stay up to date, as we update our databases every day.

Go to all conjunctions

Associated space launch

18 Low Earth Orbit communication satellites with Ku, Q and V band payloads for the G60 constellation operated by Shanghai Spacecom Satellite Technology (SSST) with funding backed by the Shanghai local government. Initial constellation will consist of 1296 satellites by 2027 with long term plans to expand it to 12000 satellites.

QIANFAN-22 was lifted into orbit during the mission ‘Long March 6A | G60 Polar Group 02’, on board a Long March 6A space rocket.

The launch took place on Oct. 15, 2024, 11:06 a.m. from Launch Complex 9A.

For more information about the launch, click the button.

Launch to space Long March 6A | G60 Polar Group 02
Long March 6A | G60 Polar Group 02

Agency: N/A

Status: Launch Successful

Launch date: Oct. 15, 2024, 11:06 a.m. UTC

Rocket: Long March 6A

Launch pad: Launch Complex 9A

Location: Taiyuan Satellite Launch Center, People's Republic of China

...

Latest news about this satellite

News about space launch
Launch Roundup: Europa Clipper launches, Starlink launches return

The Federal Aviation Administration’s (FAA) recent decision to clear SpaceX’s Falcon 9 for a return to all flights paved the way for a busy week of launches. Before Falcon 9 returned to flying regular Starlink missions, though, a Falcon Heavy launch with ...

News about space launch
China launches second batch of 18 satellites for Thousand Sails megaconstellation

MILAN — China successfully launched the second group of 18 satellites for the planned 14,000-satellite Thousand Sails megaconstellation Tuesday. A Long March 6A rocket lifted off from Taiyuan Satellite Launch […]


Newsletter sign-up

Weekly statistics, charts and insights to help you stay on top of the space industry.